contact:dominique.lefevre@mio.osupytheas.fr, maurice.libes@osupytheas.fr, didier.mallarino@osupytheas.fr
Project:EMSO http://www.emso-fr.org/EMSO-France
Depth: 2436.0 m
Title:EMSO Ligure Ouest : Data MII capteur MICROCAT
DateTime_Computer,Latitude,Longitude,Temperature,Conductivity,Pressure,DateTime_Instrument
DateTime_Computer,Latitude,Longitude,degC,S m-1,dbar,DateTime_Instrument
2020-04-08T00:01:25Z,42.805,6.029,13.2981,4.60052,2469.96,2020-4-08T02:02:04Z
2020-04-08T00:04:28Z,42.805,6.029,13.3002,4.60026,2469.947,2020-4-08T02:05:07Z
2020-04-08T00:07:31Z,42.805,6.029,13.2993,4.60029,2469.937,2020-4-08T02:08:11Z
2020-04-08T00:10:35Z,42.805,6.029,13.2984,4.59999,2469.96,2020-4-08T02:11:14Z
2020-04-08T00:13:38Z,42.805,6.029,13.2975,4.60026,2469.923,2020-4-08T02:14:17Z
2020-04-08T00:16:41Z,42.805,6.029,13.2980,4.60019,2469.923,2020-4-08T02:17:20Z
2020-04-08T00:19:45Z,42.805,6.029,13.2987,4.60033,2469.886,2020-4-08T02:20:24Z
2020-04-08T00:22:48Z,42.805,6.029,13.2983,4.60016,2469.923,2020-4-08T02:23:27Z
2020-04-08T00:25:51Z,42.805,6.029,13.2994,4.60041,2469.9,2020-4-08T02:26:30Z
2020-04-08T00:28:55Z,42.805,6.029,13.2991,4.60029,2469.937,2020-4-08T02:29:34Z
2020-04-08T00:31:58Z,42.805,6.029,13.2993,4.60035,2469.9,2020-4-08T02:32:37Z
2020-04-08T00:35:01Z,42.805,6.029,13.2977,4.60029,2469.9,2020-4-08T02:35:40Z
2020-04-08T00:38:04Z,42.805,6.029,13.2979,4.60034,2469.923,2020-4-08T02:38:43Z
2020-04-08T00:41:07Z,42.805,6.029,13.2981,4.60009,2469.914,2020-4-08T02:41:46Z
2020-04-08T00:44:11Z,42.805,6.029,13.2979,4.60013,2469.89,2020-4-08T02:44:50Z
2020-04-08T00:47:14Z,42.805,6.029,13.2983,4.60020,2469.914,2020-4-08T02:47:53Z
2020-04-08T00:50:17Z,42.805,6.029,13.2993,4.60014,2469.9,2020-4-08T02:50:56Z
2020-04-08T00:53:20Z,42.805,6.029,13.2986,4.60033,2469.89,2020-4-08T02:53:59Z
2020-04-08T00:56:24Z,42.805,6.029,13.2979,4.60026,2469.876,2020-4-08T02:57:03Z
2020-04-08T00:59:27Z,42.805,6.029,13.2980,4.60013,2469.9,2020-4-08T03:00:06Z
2020-04-08T01:02:30Z,42.805,6.029,13.2978,4.60019,2469.89,2020-4-08T03:03:09Z
2020-04-08T01:05:33Z,42.805,6.029,13.2983,4.60009,2469.914,2020-4-08T03:06:12Z
2020-04-08T01:08:37Z,42.805,6.029,13.2987,4.60003,2469.9,2020-4-08T03:09:16Z
2020-04-08T01:11:40Z,42.805,6.029,13.3005,4.60025,2469.89,2020-4-08T03:12:19Z
2020-04-08T01:14:43Z,42.805,6.029,13.2981,4.60027,2469.923,2020-4-08T03:15:22Z
2020-04-08T01:17:46Z,42.805,6.029,13.2999,4.60035,2469.914,2020-4-08T03:18:25Z
2020-04-08T01:20:50Z,42.805,6.029,13.2996,4.60042,2469.853,2020-4-08T03:21:29Z
2020-04-08T01:23:53Z,42.805,6.029,13.2996,4.60026,2469.9,2020-4-08T03:24:32Z
2020-04-08T01:26:56Z,42.805,6.029,13.2976,4.60020,2469.876,2020-4-08T03:27:35Z
2020-04-08T01:29:59Z,42.805,6.029,13.2993,4.60016,2469.9,2020-4-08T03:30:38Z
2020-04-08T01:33:02Z,42.805,6.029,13.2988,4.60025,2469.89,2020-4-08T03:33:41Z
2020-04-08T01:36:06Z,42.805,6.029,13.2996,4.60046,2469.867,2020-4-08T03:36:45Z
2020-04-08T01:39:09Z,42.805,6.029,13.2989,4.60024,2469.914,2020-4-08T03:39:48Z
2020-04-08T01:42:12Z,42.805,6.029,13.2990,4.60023,2469.89,2020-4-08T03:42:51Z
2020-04-08T01:45:15Z,42.805,6.029,13.2986,4.60016,2469.9,2020-4-08T03:45:55Z
2020-04-08T01:48:19Z,42.805,6.029,13.3006,4.60046,2469.89,2020-4-08T03:48:58Z
2020-04-08T01:51:22Z,42.805,6.029,13.2982,4.60011,2469.9,2020-4-08T03:52:01Z
2020-04-08T01:54:25Z,42.805,6.029,13.2996,4.60031,2469.89,2020-4-08T03:55:04Z
2020-04-08T01:57:28Z,42.805,6.029,13.2976,4.60029,2469.914,2020-4-08T03:58:07Z
2020-04-08T02:00:32Z,42.805,6.029,13.2986,4.60046,2469.876,2020-4-08T04:01:11Z
2020-04-08T02:03:35Z,42.805,6.029,13.2989,4.60033,2469.876,2020-4-08T04:04:14Z
2020-04-08T02:06:38Z,42.805,6.029,13.2993,4.60020,2469.876,2020-4-08T04:07:17Z
2020-04-08T02:09:41Z,42.805,6.029,13.2983,4.60039,2469.9,2020-4-08T04:10:20Z
2020-04-08T02:12:45Z,42.805,6.029,13.2997,4.60051,2469.9,2020-4-08T04:13:24Z
2020-04-08T02:15:48Z,42.805,6.029,13.2999,4.60042,2469.914,2020-4-08T04:16:27Z
2020-04-08T02:18:51Z,42.805,6.029,13.2976,4.60003,2469.9,2020-4-08T04:19:30Z
2020-04-08T02:21:54Z,42.805,6.029,13.2976,4.59996,2469.876,2020-4-08T04:22:33Z
2020-04-08T02:24:58Z,42.805,6.029,13.2979,4.59991,2469.937,2020-4-08T04:25:37Z
2020-04-08T02:28:01Z,42.805,6.029,13.2978,4.60020,2469.876,2020-4-08T04:28:40Z
2020-04-08T02:31:04Z,42.805,6.029,13.2981,4.60019,2469.923,2020-4-08T04:31:43Z
2020-04-08T02:34:07Z,42.805,6.029,13.2983,4.60039,2469.914,2020-4-08T04:34:46Z
2020-04-08T02:37:11Z,42.805,6.029,13.2982,4.60020,2469.9,2020-4-08T04:37:50Z
2020-04-08T02:40:14Z,42.805,6.029,13.2976,4.60029,2469.9,2020-4-08T04:40:53Z
2020-04-08T02:43:17Z,42.805,6.029,13.2988,4.60017,2469.914,2020-4-08T04:43:56Z
2020-04-08T02:46:21Z,42.805,6.029,13.2993,4.60039,2469.914,2020-4-08T04:47:00Z
2020-04-08T02:49:24Z,42.805,6.029,13.2997,4.60046,2469.9,2020-4-08T04:50:03Z
2020-04-08T02:52:27Z,42.805,6.029,13.2978,4.60028,2469.923,2020-4-08T04:53:06Z
2020-04-08T02:55:30Z,42.805,6.029,13.2980,4.60016,2469.923,2020-4-08T04:56:09Z
2020-04-08T02:58:34Z,42.805,6.029,13.2991,4.60031,2469.937,2020-4-08T04:59:13Z
2020-04-08T03:01:37Z,42.805,6.029,13.2992,4.60044,2469.923,2020-4-08T05:02:16Z
2020-04-08T03:04:40Z,42.805,6.029,13.2976,4.60042,2469.947,2020-4-08T05:05:19Z
2020-04-08T03:07:43Z,42.805,6.029,13.2974,4.60015,2469.923,2020-4-08T05:08:22Z
2020-04-08T03:10:47Z,42.805,6.029,13.2978,4.60032,2469.923,2020-4-08T05:11:26Z
2020-04-08T03:13:50Z,42.805,6.029,13.2995,4.60003,2469.947,2020-4-08T05:14:29Z
2020-04-08T03:16:53Z,42.805,6.029,13.2989,4.60024,2469.947,2020-4-08T05:17:32Z
2020-04-08T03:19:56Z,42.805,6.029,13.2980,4.60024,2469.984,2020-4-08T05:20:35Z
2020-04-08T03:22:59Z,42.805,6.029,13.2975,4.60020,2469.96,2020-4-08T05:23:38Z
2020-04-08T03:26:03Z,42.805,6.029,13.2980,4.60033,2469.947,2020-4-08T05:26:42Z
2020-04-08T03:29:06Z,42.805,6.029,13.2996,4.60042,2469.96,2020-4-08T05:29:45Z
2020-04-08T03:32:09Z,42.805,6.029,13.2976,4.60029,2469.947,2020-4-08T05:32:48Z
2020-04-08T03:35:12Z,42.805,6.029,13.2990,4.60009,2469.96,2020-4-08T05:35:51Z
2020-04-08T03:38:16Z,42.805,6.029,13.2978,4.60002,2469.947,2020-4-08T05:38:55Z
2020-04-08T03:41:19Z,42.805,6.029,13.2981,4.60011,2469.96,2020-4-08T05:41:58Z
2020-04-08T03:44:22Z,42.805,6.029,13.2986,4.60021,2469.923,2020-4-08T05:45:01Z
2020-04-08T03:47:25Z,42.805,6.029,13.2983,4.60020,2469.97,2020-4-08T05:48:04Z
2020-04-08T03:50:29Z,42.805,6.029,13.2974,4.60006,2470.017,2020-4-08T05:51:08Z
2020-04-08T03:53:32Z,42.805,6.029,13.2982,4.60003,2469.993,2020-4-08T05:54:11Z
2020-04-08T03:56:35Z,42.805,6.029,13.2988,4.60007,2470.03,2020-4-08T05:57:14Z
2020-04-08T03:59:38Z,42.805,6.029,13.2974,4.60022,2469.993,2020-4-08T06:00:17Z
2020-04-08T04:02:41Z,42.805,6.029,13.2983,4.60010,2470.017,2020-4-08T06:03:20Z
2020-04-08T04:05:45Z,42.805,6.029,13.2979,4.60013,2469.993,2020-4-08T06:06:24Z
2020-04-08T04:08:48Z,42.805,6.029,13.2979,4.60028,2470.03,2020-4-08T06:09:27Z
2020-04-08T04:11:51Z,42.805,6.029,13.2976,4.60019,2470.017,2020-4-08T06:12:30Z
2020-04-08T04:14:54Z,42.805,6.029,13.2977,4.59999,2470.03,2020-4-08T06:15:33Z
2020-04-08T04:17:57Z,42.805,6.029,13.2984,4.60031,2470.017,2020-4-08T06:18:37Z
2020-04-08T04:21:01Z,42.805,6.029,13.2986,4.60031,2470.017,2020-4-08T06:21:40Z
2020-04-08T04:24:04Z,42.805,6.029,13.2985,4.60027,2470.017,2020-4-08T06:24:43Z
2020-04-08T04:27:07Z,42.805,6.029,13.2981,4.60026,2470.053,2020-4-08T06:27:46Z
2020-04-08T04:30:10Z,42.805,6.029,13.2976,4.60052,2470.077,2020-4-08T06:30:50Z
2020-04-08T04:33:14Z,42.805,6.029,13.2988,4.60014,2470.03,2020-4-08T06:33:53Z
2020-04-08T04:36:17Z,42.805,6.029,13.2982,4.60047,2470.04,2020-4-08T06:36:56Z
2020-04-08T04:39:20Z,42.805,6.029,13.2990,4.60031,2470.04,2020-4-08T06:39:59Z
2020-04-08T04:42:24Z,42.805,6.029,13.3004,4.60041,2470.063,2020-4-08T06:43:03Z
2020-04-08T04:45:27Z,42.805,6.029,13.2972,4.60011,2470.04,2020-4-08T06:46:06Z
2020-04-08T04:48:30Z,42.805,6.029,13.2979,4.60029,2470.053,2020-4-08T06:49:09Z
2020-04-08T04:51:33Z,42.805,6.029,13.2976,4.60011,2470.053,2020-4-08T06:52:12Z
2020-04-08T04:54:36Z,42.805,6.029,13.2977,4.60009,2470.063,2020-4-08T06:55:16Z
2020-04-08T04:57:40Z,42.805,6.029,13.2982,4.60003,2470.063,2020-4-08T06:58:19Z
2020-04-08T05:00:43Z,42.805,6.029,13.2982,4.60006,2470.1,2020-4-08T07:01:22Z
2020-04-08T05:03:46Z,42.805,6.029,13.2980,4.60012,2470.063,2020-4-08T07:04:25Z
2020-04-08T05:06:49Z,42.805,6.029,13.2980,4.60006,2470.087,2020-4-08T07:07:28Z
2020-04-08T05:09:53Z,42.805,6.029,13.2986,4.59996,2470.049,2020-4-08T07:10:32Z
2020-04-08T05:12:56Z,42.805,6.029,13.2977,4.60004,2470.1,2020-4-08T07:13:35Z
2020-04-08T05:15:59Z,42.805,6.029,13.2986,4.60015,2470.11,2020-4-08T07:16:38Z
2020-04-08T05:19:02Z,42.805,6.029,13.2984,4.60019,2470.087,2020-4-08T07:19:41Z
2020-04-08T05:22:06Z,42.805,6.029,13.2981,4.60035,2470.124,2020-4-08T07:22:45Z
2020-04-08T05:25:09Z,42.805,6.029,13.2979,4.60011,2470.087,2020-4-08T07:25:48Z
2020-04-08T05:28:12Z,42.805,6.029,13.2980,4.59999,2470.11,2020-4-08T07:28:51Z
2020-04-08T05:31:15Z,42.805,6.029,13.2991,4.60008,2470.087,2020-4-08T07:31:54Z
2020-04-08T05:34:19Z,42.805,6.029,13.2978,4.60021,2470.11,2020-4-08T07:34:58Z
2020-04-08T05:37:22Z,42.805,6.029,13.2990,4.60025,2470.124,2020-4-08T07:38:01Z
2020-04-08T05:40:25Z,42.805,6.029,13.3009,4.60032,2470.1,2020-4-08T07:41:04Z
2020-04-08T05:43:28Z,42.805,6.029,13.2986,4.60037,2470.133,2020-4-08T07:44:07Z
2020-04-08T05:46:32Z,42.805,6.029,13.2978,4.60019,2470.133,2020-4-08T07:47:11Z
2020-04-08T05:49:35Z,42.805,6.029,13.2982,4.60021,2470.133,2020-4-08T07:50:14Z
2020-04-08T05:52:38Z,42.805,6.029,13.2983,4.60029,2470.147,2020-4-08T07:53:17Z
2020-04-08T05:55:41Z,42.805,6.029,13.2979,4.60044,2470.133,2020-4-08T07:56:20Z
2020-04-08T05:58:44Z,42.805,6.029,13.2979,4.60001,2470.133,2020-4-08T07:59:23Z
2020-04-08T06:01:48Z,42.805,6.029,13.2983,4.60008,2470.171,2020-4-08T08:02:27Z
2020-04-08T06:04:51Z,42.805,6.029,13.2977,4.60020,2470.133,2020-4-08T08:05:30Z
2020-04-08T06:07:54Z,42.805,6.029,13.2994,4.60024,2470.133,2020-4-08T08:08:33Z
2020-04-08T06:10:57Z,42.805,6.029,13.2976,4.59995,2470.171,2020-4-08T08:11:36Z
2020-04-08T06:14:01Z,42.805,6.029,13.2982,4.60005,2470.133,2020-4-08T08:14:40Z
2020-04-08T06:17:04Z,42.805,6.029,13.2974,4.60017,2470.156,2020-4-08T08:17:43Z
2020-04-08T06:20:07Z,42.805,6.029,13.2987,4.60031,2470.147,2020-4-08T08:20:46Z
2020-04-08T06:23:11Z,42.805,6.029,13.3003,4.60026,2470.156,2020-4-08T08:23:50Z
2020-04-08T06:26:14Z,42.805,6.029,13.2976,4.60009,2470.147,2020-4-08T08:26:53Z
2020-04-08T06:29:17Z,42.805,6.029,13.2979,4.60002,2470.133,2020-4-08T08:29:56Z
2020-04-08T06:32:20Z,42.805,6.029,13.2983,4.59981,2470.194,2020-4-08T08:32:59Z
2020-04-08T06:35:24Z,42.805,6.029,13.2976,4.60021,2470.18,2020-4-08T08:36:03Z
2020-04-08T06:38:27Z,42.805,6.029,13.2981,4.60021,2470.156,2020-4-08T08:39:06Z
2020-04-08T06:41:30Z,42.805,6.029,13.2976,4.60007,2470.171,2020-4-08T08:42:09Z
2020-04-08T06:44:33Z,42.805,6.029,13.2974,4.60009,2470.194,2020-4-08T08:45:12Z
2020-04-08T06:47:37Z,42.805,6.029,13.2979,4.60023,2470.143,2020-4-08T08:48:16Z
2020-04-08T06:50:40Z,42.805,6.029,13.2988,4.60009,2470.133,2020-4-08T08:51:19Z
2020-04-08T06:53:43Z,42.805,6.029,13.2986,4.60003,2470.156,2020-4-08T08:54:22Z
2020-04-08T06:56:46Z,42.805,6.029,13.2977,4.60003,2470.156,2020-4-08T08:57:25Z
2020-04-08T06:59:49Z,42.805,6.029,13.2981,4.59995,2470.194,2020-4-08T09:00:28Z
2020-04-08T07:02:53Z,42.805,6.029,13.2979,4.60028,2470.156,2020-4-08T09:03:32Z
2020-04-08T07:05:56Z,42.805,6.029,13.2979,4.60012,2470.194,2020-4-08T09:06:35Z
2020-04-08T07:08:59Z,42.805,6.029,13.2982,4.60014,2470.18,2020-4-08T09:09:38Z
2020-04-08T07:12:03Z,42.805,6.029,13.2974,4.60014,2470.147,2020-4-08T09:12:42Z
2020-04-08T07:15:06Z,42.805,6.029,13.2990,4.60044,2470.171,2020-4-08T09:15:45Z
2020-04-08T07:18:09Z,42.805,6.029,13.2990,4.60036,2470.18,2020-4-08T09:18:48Z
2020-04-08T07:21:12Z,42.805,6.029,13.2976,4.60008,2470.171,2020-4-08T09:21:51Z
2020-04-08T07:24:16Z,42.805,6.029,13.2976,4.60029,2470.156,2020-4-08T09:24:55Z
2020-04-08T07:27:19Z,42.805,6.029,13.2992,4.60038,2470.171,2020-4-08T09:27:58Z
2020-04-08T07:30:22Z,42.805,6.029,13.2986,4.60032,2470.18,2020-4-08T09:31:01Z
2020-04-08T07:33:26Z,42.805,6.029,13.2991,4.60017,2470.133,2020-4-08T09:34:05Z
2020-04-08T07:36:29Z,42.805,6.029,13.2983,4.59998,2470.156,2020-4-08T09:37:08Z
2020-04-08T07:39:32Z,42.805,6.029,13.2986,4.60004,2470.156,2020-4-08T09:40:11Z
2020-04-08T07:42:35Z,42.805,6.029,13.2993,4.60021,2470.133,2020-4-08T09:43:14Z
2020-04-08T07:45:38Z,42.805,6.029,13.2975,4.59998,2470.156,2020-4-08T09:46:18Z
2020-04-08T07:48:42Z,42.805,6.029,13.2975,4.59993,2470.171,2020-4-08T09:49:21Z
2020-04-08T07:51:45Z,42.805,6.029,13.2978,4.59999,2470.18,2020-4-08T09:52:24Z
2020-04-08T07:54:48Z,42.805,6.029,13.2991,4.60010,2470.156,2020-4-08T09:55:27Z
2020-04-08T07:57:52Z,42.805,6.029,13.2984,4.60005,2470.147,2020-4-08T09:58:31Z
2020-04-08T08:00:55Z,42.805,6.029,13.2978,4.60014,2470.171,2020-4-08T10:01:34Z
2020-04-08T08:03:58Z,42.805,6.029,13.2975,4.60007,2470.194,2020-4-08T10:04:37Z
2020-04-08T08:07:01Z,42.805,6.029,13.2974,4.60009,2470.147,2020-4-08T10:07:40Z
2020-04-08T08:10:05Z,42.805,6.029,13.2981,4.59999,2470.156,2020-4-08T10:10:44Z
2020-04-08T08:13:08Z,42.805,6.029,13.2991,4.60024,2470.133,2020-4-08T10:13:47Z
2020-04-08T08:16:11Z,42.805,6.029,13.2993,4.60026,2470.156,2020-4-08T10:16:50Z
2020-04-08T08:19:14Z,42.805,6.029,13.2974,4.60009,2470.194,2020-4-08T10:19:53Z
2020-04-08T08:22:18Z,42.805,6.029,13.2979,4.59992,2470.133,2020-4-08T10:22:57Z
2020-04-08T08:25:21Z,42.805,6.029,13.2980,4.59997,2470.124,2020-4-08T10:26:00Z
2020-04-08T08:28:24Z,42.805,6.029,13.2983,4.60006,2470.133,2020-4-08T10:29:03Z
2020-04-08T08:31:27Z,42.805,6.029,13.2989,4.60019,2470.171,2020-4-08T10:32:06Z
2020-04-08T08:34:31Z,42.805,6.029,13.2988,4.60021,2470.18,2020-4-08T10:35:10Z
2020-04-08T08:37:34Z,42.805,6.029,13.2978,4.60023,2470.124,2020-4-08T10:38:13Z
2020-04-08T08:40:37Z,42.805,6.029,13.2991,4.60029,2470.11,2020-4-08T10:41:16Z
2020-04-08T08:43:40Z,42.805,6.029,13.2979,4.60016,2470.156,2020-4-08T10:44:19Z
2020-04-08T08:46:44Z,42.805,6.029,13.2974,4.60011,2470.133,2020-4-08T10:47:23Z
2020-04-08T08:49:47Z,42.805,6.029,13.2985,4.60029,2470.147,2020-4-08T10:50:26Z
2020-04-08T08:52:50Z,42.805,6.029,13.2977,4.60026,2470.133,2020-4-08T10:53:29Z
2020-04-08T08:55:53Z,42.805,6.029,13.2980,4.60007,2470.147,2020-4-08T10:56:32Z
2020-04-08T08:58:57Z,42.805,6.029,13.2976,4.60003,2470.11,2020-4-08T10:59:36Z
2020-04-08T09:02:00Z,42.805,6.029,13.2978,4.60003,2470.124,2020-4-08T11:02:39Z
2020-04-08T09:05:03Z,42.805,6.029,13.2975,4.60015,2470.11,2020-4-08T11:05:42Z
2020-04-08T09:08:06Z,42.805,6.029,13.2978,4.60000,2470.11,2020-4-08T11:08:45Z
2020-04-08T09:11:09Z,42.805,6.029,13.2979,4.60015,2470.11,2020-4-08T11:11:48Z
2020-04-08T09:14:13Z,42.805,6.029,13.2974,4.59995,2470.11,2020-4-08T11:14:52Z
2020-04-08T09:17:16Z,42.805,6.029,13.3000,4.60007,2470.124,2020-4-08T11:17:55Z
2020-04-08T09:20:19Z,42.805,6.029,13.2979,4.59994,2470.124,2020-4-08T11:20:58Z
2020-04-08T09:23:22Z,42.805,6.029,13.2986,4.59991,2470.11,2020-4-08T11:24:02Z
2020-04-08T09:26:26Z,42.805,6.029,13.2982,4.60021,2470.087,2020-4-08T11:27:05Z
2020-04-08T09:29:29Z,42.805,6.029,13.2988,4.60017,2470.11,2020-4-08T11:30:08Z
2020-04-08T09:32:32Z,42.805,6.029,13.2986,4.60029,2470.124,2020-4-08T11:33:11Z
2020-04-08T09:35:35Z,42.805,6.029,13.2979,4.60049,2470.11,2020-4-08T11:36:14Z
2020-04-08T09:38:39Z,42.805,6.029,13.2993,4.60014,2470.124,2020-4-08T11:39:18Z
2020-04-08T09:41:43Z,42.805,6.029,13.2978,4.60005,2470.087,2020-4-08T11:42:22Z
2020-04-08T09:44:46Z,42.805,6.029,13.2981,4.60012,2470.087,2020-4-08T11:45:25Z
2020-04-08T09:47:49Z,42.805,6.029,13.2977,4.59997,2470.087,2020-4-08T11:48:28Z
2020-04-08T09:50:52Z,42.805,6.029,13.2972,4.59998,2470.087,2020-4-08T11:51:31Z
2020-04-08T09:53:56Z,42.805,6.029,13.2976,4.59991,2470.1,2020-4-08T11:54:35Z
2020-04-08T09:56:59Z,42.805,6.029,13.2982,4.60006,2470.087,2020-4-08T11:57:38Z
2020-04-08T10:00:02Z,42.805,6.029,13.2982,4.59996,2470.063,2020-4-08T12:00:41Z
2020-04-08T10:03:05Z,42.805,6.029,13.2979,4.60021,2470.063,2020-4-08T12:03:44Z
2020-04-08T10:06:08Z,42.805,6.029,13.2986,4.60014,2470.04,2020-4-08T12:06:47Z
2020-04-08T10:09:12Z,42.805,6.029,13.2987,4.60028,2470.1,2020-4-08T12:09:51Z
2020-04-08T10:12:15Z,42.805,6.029,13.2991,4.60022,2470.04,2020-4-08T12:12:54Z
2020-04-08T10:15:18Z,42.805,6.029,13.2972,4.60023,2470.1,2020-4-08T12:15:57Z
2020-04-08T10:18:21Z,42.805,6.029,13.2976,4.60008,2470.063,2020-4-08T12:19:00Z
2020-04-08T10:21:25Z,42.805,6.029,13.2977,4.59994,2470.053,2020-4-08T12:22:04Z
2020-04-08T10:24:28Z,42.805,6.029,13.2976,4.60020,2470.1,2020-4-08T12:25:07Z
2020-04-08T10:27:31Z,42.805,6.029,13.2976,4.59997,2470.04,2020-4-08T12:28:10Z
2020-04-08T10:30:34Z,42.805,6.029,13.2976,4.59983,2470.063,2020-4-08T12:31:13Z
2020-04-08T10:33:38Z,42.805,6.029,13.2991,4.60007,2470.03,2020-4-08T12:34:17Z
2020-04-08T10:36:41Z,42.805,6.029,13.2983,4.60012,2470.063,2020-4-08T12:37:20Z
2020-04-08T10:39:44Z,42.805,6.029,13.2984,4.60026,2470.04,2020-4-08T12:40:23Z
2020-04-08T10:42:48Z,42.805,6.029,13.2977,4.59998,2470.04,2020-4-08T12:43:27Z
2020-04-08T10:45:51Z,42.805,6.029,13.2987,4.60002,2470.03,2020-4-08T12:46:30Z
2020-04-08T10:48:54Z,42.805,6.029,13.2978,4.60020,2470.04,2020-4-08T12:49:33Z
2020-04-08T10:51:57Z,42.805,6.029,13.3004,4.60027,2470.03,2020-4-08T12:52:36Z
2020-04-08T10:55:01Z,42.805,6.029,13.2986,4.60011,2470.017,2020-4-08T12:55:40Z
2020-04-08T10:58:04Z,42.805,6.029,13.2983,4.60007,2470.007,2020-4-08T12:58:43Z
2020-04-08T11:01:07Z,42.805,6.029,13.2980,4.60009,2470.03,2020-4-08T13:01:46Z
2020-04-08T11:04:11Z,42.805,6.029,13.2986,4.60017,2470.017,2020-4-08T13:04:50Z
2020-04-08T11:07:14Z,42.805,6.029,13.2987,4.60019,2470.017,2020-4-08T13:07:53Z
2020-04-08T11:10:17Z,42.805,6.029,13.2976,4.59996,2469.993,2020-4-08T13:10:56Z
2020-04-08T11:13:20Z,42.805,6.029,13.2974,4.60001,2470.053,2020-4-08T13:13:59Z
2020-04-08T11:16:23Z,42.805,6.029,13.2976,4.60009,2470.03,2020-4-08T13:17:02Z
2020-04-08T11:19:27Z,42.805,6.029,13.2979,4.60000,2470.03,2020-4-08T13:20:06Z
2020-04-08T11:22:30Z,42.805,6.029,13.2977,4.59989,2469.993,2020-4-08T13:23:09Z
2020-04-08T11:25:33Z,42.805,6.029,13.2982,4.59999,2469.993,2020-4-08T13:26:12Z
2020-04-08T11:28:37Z,42.805,6.029,13.2976,4.60004,2470.007,2020-4-08T13:29:16Z
2020-04-08T11:31:40Z,42.805,6.029,13.2973,4.60000,2469.947,2020-4-08T13:32:19Z
2020-04-08T11:34:43Z,42.805,6.029,13.2983,4.60033,2469.984,2020-4-08T13:35:22Z
2020-04-08T11:37:46Z,42.805,6.029,13.2975,4.60015,2469.97,2020-4-08T13:38:25Z
2020-04-08T11:40:49Z,42.805,6.029,13.2983,4.60033,2470.007,2020-4-08T13:41:28Z
2020-04-08T11:43:53Z,42.805,6.029,13.2973,4.60009,2469.947,2020-4-08T13:44:32Z
2020-04-08T11:46:56Z,42.805,6.029,13.2983,4.60014,2469.923,2020-4-08T13:47:35Z
2020-04-08T11:49:59Z,42.805,6.029,13.2979,4.59997,2469.947,2020-4-08T13:50:38Z
2020-04-08T11:53:02Z,42.805,6.029,13.2981,4.60021,2469.97,2020-4-08T13:53:41Z
2020-04-08T11:56:06Z,42.805,6.029,13.2978,4.60019,2469.947,2020-4-08T13:56:45Z
2020-04-08T11:59:09Z,42.805,6.029,13.2980,4.60031,2469.947,2020-4-08T13:59:48Z
2020-04-08T12:02:12Z,42.805,6.029,13.2987,4.60019,2469.947,2020-4-08T14:02:51Z
2020-04-08T12:05:15Z,42.805,6.029,13.2986,4.60000,2469.923,2020-4-08T14:05:54Z
2020-04-08T12:08:18Z,42.805,6.029,13.2986,4.60003,2469.923,2020-4-08T14:08:58Z
2020-04-08T12:11:22Z,42.805,6.029,13.2979,4.59991,2469.937,2020-4-08T14:12:01Z
2020-04-08T12:14:25Z,42.805,6.029,13.2982,4.60004,2469.923,2020-4-08T14:15:04Z
2020-04-08T12:17:28Z,42.805,6.029,13.2979,4.60008,2469.96,2020-4-08T14:18:07Z
2020-04-08T12:20:31Z,42.805,6.029,13.2981,4.60009,2469.89,2020-4-08T14:21:11Z
2020-04-08T12:23:35Z,42.805,6.029,13.2977,4.59989,2469.9,2020-4-08T14:24:14Z
2020-04-08T12:26:38Z,42.805,6.029,13.2975,4.60001,2469.89,2020-4-08T14:27:17Z
2020-04-08T12:29:41Z,42.805,6.029,13.2979,4.59998,2469.923,2020-4-08T14:30:21Z
2020-04-08T12:32:45Z,42.805,6.029,13.2980,4.60007,2469.923,2020-4-08T14:33:24Z
2020-04-08T12:35:48Z,42.805,6.029,13.2983,4.60009,2469.9,2020-4-08T14:36:27Z
2020-04-08T12:38:51Z,42.805,6.029,13.2974,4.59999,2469.914,2020-4-08T14:39:30Z
2020-04-08T12:41:54Z,42.805,6.029,13.2980,4.60003,2469.914,2020-4-08T14:42:33Z
2020-04-08T12:44:58Z,42.805,6.029,13.2976,4.60014,2469.923,2020-4-08T14:45:37Z
2020-04-08T12:48:01Z,42.805,6.029,13.2973,4.60000,2469.876,2020-4-08T14:48:40Z
2020-04-08T12:51:04Z,42.805,6.029,13.2983,4.59995,2469.914,2020-4-08T14:51:43Z
2020-04-08T12:54:07Z,42.805,6.029,13.2971,4.59989,2469.89,2020-4-08T14:54:46Z
2020-04-08T12:57:11Z,42.805,6.029,13.2981,4.59989,2469.914,2020-4-08T14:57:50Z
2020-04-08T13:00:14Z,42.805,6.029,13.2981,4.59999,2469.876,2020-4-08T15:00:53Z
2020-04-08T13:03:17Z,42.805,6.029,13.2983,4.59998,2469.876,2020-4-08T15:03:56Z
2020-04-08T13:06:20Z,42.805,6.029,13.2980,4.59993,2469.876,2020-4-08T15:06:59Z
2020-04-08T13:09:24Z,42.805,6.029,13.2976,4.59995,2469.876,2020-4-08T15:10:03Z
2020-04-08T13:12:27Z,42.805,6.029,13.2982,4.60006,2469.853,2020-4-08T15:13:06Z
2020-04-08T13:15:30Z,42.805,6.029,13.2976,4.60000,2469.853,2020-4-08T15:16:09Z
2020-04-08T13:18:33Z,42.805,6.029,13.2979,4.59989,2469.83,2020-4-08T15:19:12Z
2020-04-08T13:21:36Z,42.805,6.029,13.2984,4.60003,2469.867,2020-4-08T15:22:16Z
2020-04-08T13:24:40Z,42.805,6.029,13.2982,4.59995,2469.867,2020-4-08T15:25:19Z
2020-04-08T13:27:43Z,42.805,6.029,13.2976,4.59985,2469.89,2020-4-08T15:28:22Z
2020-04-08T13:30:46Z,42.805,6.029,13.2979,4.60000,2469.876,2020-4-08T15:31:25Z
2020-04-08T13:33:50Z,42.805,6.029,13.2975,4.60000,2469.89,2020-4-08T15:34:29Z
2020-04-08T13:36:53Z,42.805,6.029,13.2975,4.60006,2469.9,2020-4-08T15:37:32Z
2020-04-08T13:39:56Z,42.805,6.029,13.2979,4.59988,2469.876,2020-4-08T15:40:35Z
2020-04-08T13:43:00Z,42.805,6.029,13.2990,4.60002,2469.876,2020-4-08T15:43:39Z
2020-04-08T13:46:03Z,42.805,6.029,13.2981,4.59999,2469.89,2020-4-08T15:46:42Z
2020-04-08T13:49:06Z,42.805,6.029,13.2982,4.60006,2469.867,2020-4-08T15:49:45Z
2020-04-08T13:52:10Z,42.805,6.029,13.2974,4.59996,2469.867,2020-4-08T15:52:49Z
2020-04-08T13:55:13Z,42.805,6.029,13.2974,4.59988,2469.867,2020-4-08T15:55:52Z
2020-04-08T13:58:16Z,42.805,6.029,13.2972,4.59994,2469.89,2020-4-08T15:58:55Z
2020-04-08T14:01:19Z,42.805,6.029,13.2979,4.59988,2469.83,2020-4-08T16:01:58Z
2020-04-08T14:04:23Z,42.805,6.029,13.2976,4.60000,2469.853,2020-4-08T16:05:02Z
2020-04-08T14:07:26Z,42.805,6.029,13.2974,4.59986,2469.89,2020-4-08T16:08:05Z
2020-04-08T14:10:29Z,42.805,6.029,13.2982,4.59990,2469.876,2020-4-08T16:11:08Z
2020-04-08T14:13:33Z,42.805,6.029,13.2979,4.59998,2469.853,2020-4-08T16:14:12Z
2020-04-08T14:16:36Z,42.805,6.029,13.2973,4.59988,2469.876,2020-4-08T16:17:15Z
2020-04-08T14:19:39Z,42.805,6.029,13.2974,4.59986,2469.83,2020-4-08T16:20:18Z
2020-04-08T14:22:42Z,42.805,6.029,13.2977,4.59986,2469.83,2020-4-08T16:23:21Z
2020-04-08T14:25:45Z,42.805,6.029,13.2979,4.59987,2469.867,2020-4-08T16:26:25Z
2020-04-08T14:28:49Z,42.805,6.029,13.2982,4.59999,2469.853,2020-4-08T16:29:28Z
2020-04-08T14:31:52Z,42.805,6.029,13.2986,4.60016,2469.806,2020-4-08T16:32:31Z
2020-04-08T14:34:55Z,42.805,6.029,13.2981,4.60010,2469.876,2020-4-08T16:35:34Z
2020-04-08T14:37:59Z,42.805,6.029,13.2976,4.59993,2469.844,2020-4-08T16:38:38Z
2020-04-08T14:41:02Z,42.805,6.029,13.2979,4.60044,2469.867,2020-4-08T16:41:41Z
2020-04-08T14:44:05Z,42.805,6.029,13.2981,4.60014,2469.853,2020-4-08T16:44:44Z
2020-04-08T14:47:08Z,42.805,6.029,13.2975,4.60001,2469.844,2020-4-08T16:47:47Z
2020-04-08T14:50:11Z,42.805,6.029,13.2982,4.60008,2469.867,2020-4-08T16:50:51Z
2020-04-08T14:53:15Z,42.805,6.029,13.2974,4.60006,2469.867,2020-4-08T16:53:54Z
2020-04-08T14:56:18Z,42.805,6.029,13.2981,4.60011,2469.867,2020-4-08T16:56:57Z
2020-04-08T14:59:21Z,42.805,6.029,13.2979,4.60025,2469.876,2020-4-08T17:00:00Z
2020-04-08T15:02:24Z,42.805,6.029,13.2974,4.59998,2469.83,2020-4-08T17:03:04Z
2020-04-08T15:05:28Z,42.805,6.029,13.2978,4.60009,2469.853,2020-4-08T17:06:07Z
2020-04-08T15:08:31Z,42.805,6.029,13.2982,4.60019,2469.867,2020-4-08T17:09:10Z
2020-04-08T15:11:34Z,42.805,6.029,13.2974,4.59993,2469.89,2020-4-08T17:12:13Z
2020-04-08T15:14:37Z,42.805,6.029,13.2978,4.59986,2469.853,2020-4-08T17:15:16Z